Location: Melbourne
(37.8170°S, 144.9670°E)
Time: 10:57:44
(UTC+11:00)

Transit 2A - All Passes

Search period start: 22 January 2018 00:00
Search period end: 01 February 2018 00:00
Orbit: 592 x 967 km, 66.7° (Epoch: 21 January)

Date Brightness Start Highest point End Pass type
(mag) Time Alt. Az. Time Alt. Az. Time Alt. Az.
22 Jan - 01:37:57 10° SE 01:38:46 10° SE 01:39:36 10° SE visible
22 Jan - 03:17:40 10° SSW 03:22:39 72° ESE 03:28:08 10° NNE visible
22 Jan - 05:02:59 10° WSW 05:05:21 13° WNW 05:07:50 10° NW visible
22 Jan - 17:56:41 10° NNW 18:01:07 89° SW 18:05:29 10° SSE daylight
23 Jan - 02:43:45 10° SSW 02:48:34 48° ESE 02:53:51 10° NE visible
23 Jan - 04:27:44 10° WSW 04:31:28 20° WNW 04:35:27 10° NNW visible
23 Jan - 17:22:47 10° NNW 17:27:06 56° ENE 17:31:22 10° SE daylight
23 Jan - 19:08:09 10° W 19:10:35 14° SW 19:13:01 10° SSW daylight
24 Jan - 02:09:57 10° S 02:14:27 33° SE 02:19:20 10° ENE visible
24 Jan - 03:53:06 10° SW 03:57:32 30° WNW 04:02:21 10° N visible
24 Jan - 16:49:10 10° N 16:53:08 34° ENE 16:57:05 10° SE daylight
24 Jan - 18:32:59 10° WNW 18:36:20 21° SW 18:39:41 10° S daylight
25 Jan - 01:36:18 10° S 01:40:16 23° SE 01:44:32 10° ENE visible
25 Jan - 03:18:44 10° SW 03:23:34 46° WNW 03:28:53 10° N visible
25 Jan - 16:15:54 10° NNE 16:19:14 21° ENE 16:22:32 10° ESE daylight
25 Jan - 17:58:13 10° WNW 18:02:08 31° SW 18:06:04 10° S daylight
26 Jan - 01:02:52 10° S 01:06:02 17° SE 01:09:21 10° E visible
26 Jan - 02:44:32 10° SSW 02:49:34 70° WNW 02:55:08 10° NNE visible
26 Jan - 15:43:18 10° NE 15:45:22 13° ENE 15:47:24 10° ESE daylight
26 Jan - 17:23:46 10° NW 17:28:01 49° WSW 17:32:16 10° SSE daylight
27 Jan - 00:30:00 10° SSE 00:31:43 12° SE 00:33:30 10° ESE visible
27 Jan - 02:10:29 10° SSW 02:15:32 79° ESE 02:21:08 10° NNE visible
27 Jan - 03:56:14 10° W 03:58:13 12° WNW 04:00:15 10° NW visible
27 Jan - 16:49:33 10° NNW 16:53:57 80° WSW 16:58:19 10° SSE daylight
28 Jan - 01:36:32 10° SSW 01:41:28 53° ESE 01:46:54 10° NE visible
28 Jan - 03:20:45 10° WSW 03:24:19 19° WNW 03:28:08 10° NNW visible
28 Jan - 16:15:36 10° NNW 16:19:56 63° ENE 16:24:14 10° SE daylight
28 Jan - 18:01:23 10° WSW 18:03:30 13° SW 18:05:38 10° SSW daylight
29 Jan - 01:02:42 10° S 01:07:21 36° ESE 01:12:25 10° ENE visible
29 Jan - 02:46:01 10° SW 02:50:24 28° WNW 02:55:09 10° NNW visible
29 Jan - 15:41:54 10° N 15:45:58 38° ENE 15:50:00 10° SE daylight
29 Jan - 17:26:03 10° W 17:29:13 19° SW 17:32:25 10° S daylight
30 Jan - 00:29:00 10° S 00:33:11 26° SE 00:37:41 10° ENE visible
30 Jan - 02:11:36 10° SW 02:16:27 42° WNW 02:21:45 10° N visible
30 Jan - 15:08:33 10° NNE 15:12:03 23° ENE 15:15:31 10° SE daylight
30 Jan - 16:51:13 10° WNW 16:55:01 29° SW 16:58:50 10° S daylight
30 Jan - 23:55:30 10° S 23:58:58 18° SE 00:02:38 10° E visible
31 Jan - 01:37:23 10° SW 01:42:27 64° WNW 01:48:03 10° NNE visible
31 Jan - 14:35:45 10° NE 14:38:11 15° ENE 14:40:35 10° ESE daylight
31 Jan - 16:16:42 10° NW 16:20:52 44° WSW 16:25:04 10° SSE daylight
31 Jan - 23:22:23 10° SSE 23:24:40 13° SE 23:27:02 10° ESE visible
